[[{"header":{"parameterUnit":"m.s-1","parameterCategory":1,"la1":30.2991,"la2":30.254,"lo1":-89.0895,"lo2":-89.0444,"dy":0.0017,"dx":0.0017,"nx":28,"ny":28,"refTime":"2024-02-19T03:00:00:Z","depth":0,"parameterNumber":2,"parameterNumberName":"U-component_of_WINDS"},"data":[0,0,0,0,0,0,0,0,0,0,0,0,0,0,0,0,0,0,0,0,0,0,0,0,0,0,0,0,0,0,0,0,0,0,0,0,0,0,0,0,0,0,0,0,0,0,0,0,0,0,0,0,0,0,0,0,0,0,1.7612,1.7612,0,1.7683,1.7683,1.7684,1.7678,1.7677,1.7676,1.7675,1.775,1.7752,1.7755,0,0,0,0,0,0,0,0,0,0,0,0,0,1.7473,1.7476,1.7612,1.7613,1.7613,1.7683,1.7684,1.7685,1.7678,1.7677,1.7675,1.7674,1.7749,1.7752,1.7756,0,0,0,0,0,0,0,0,0,0,0,0,0,1.7538,1.7477,1.7611,1.7618,1.762,1.7682,1.7684,1.7685,1.7678,1.7677,1.7675,1.7673,1.7747,1.7752,1.7756,1.7817,0,0,1.777,1.7772,0,0,0,0,0,0,0,0,1.7534,1.7543,1.7617,1.7618,1.762,1.767,1.7662,1.7729,1.7679,1.7656,1.7675,1.7673,1.7724,1.7731,1.7748,1.7821,1.7824,1.777,1.7773,1.7775,1.7776,0,0,0,0,0,0,0,1.753,1.754,1.764,1.7618,1.762,1.7619,1.7626,1.7675,1.7699,1.7658,1.7658,1.7666,1.7725,1.7743,1.7749,1.7825,1.777,1.7774,1.7777,1.7779,1.7952,1.7954,0,0,0,0,0,0,1.7523,1.7536,1.7638,1.7642,1.7572,1.7623,1.7631,1.7655,1.7698,1.7703,1.7667,1.7665,1.7736,1.7744,1.7752,1.7826,1.7775,1.7779,1.7782,1.795,1.7952,1.7954,0,0,0,0,0,0,1.752,1.7532,1.7635,1.7589,1.7602,1.7627,1.7654,1.7658,1.7676,1.7705,1.771,1.7681,1.7735,1.7746,1.7801,1.7828,1.7781,1.7786,1.7948,1.7951,1.7953,1.7973,0,0,0,0,0,0,1.7516,1.7531,1.7554,1.759,1.7604,1.7681,1.7656,1.766,1.7683,1.7682,1.772,1.7724,1.7735,1.7794,1.7805,1.7833,1.7789,1.7945,1.7949,1.7952,1.797,1.7976,1.7982,0,0,0,0,0,1.7511,1.7557,1.7555,1.7567,1.7633,1.7683,1.7691,1.7702,1.7686,1.7709,1.7728,1.7723,1.7824,1.78,1.7812,1.7842,1.7944,1.7948,1.7952,1.7968,1.7975,1.7982,0,0,0,0,0,0,1.7524,1.7562,1.756,1.7618,1.7647,1.7682,1.7711,1.771,1.7744,1.7741,1.7754,1.7763,1.7818,1.7836,1.7809,1.7904,1.7882,1.7889,1.7889,1.7897,1.7902,1.7896,1.7793,0,0,0,0,0,1.7534,1.757,1.7602,1.765,1.7665,1.7686,1.7708,1.7714,1.7744,1.7757,1.778,1.7811,1.7849,1.7875,1.7912,1.7974,1.7982,1.8001,1.8007,1.8011,1.8016,1.805,1.8059,1.7968,1.7968,1.7968,0,0,1.7554,1.7579,1.7601,1.7654,1.7677,1.7715,1.7696,1.7737,1.7766,1.7763,1.7816,1.7835,1.787,1.7929,1.7956,1.7946,1.8044,1.8017,1.802,1.8023,1.8056,1.8064,1.8072,1.7971,1.7971,1.797,0,0,1.7609,1.7633,1.7675,1.7699,1.7734,1.7748,1.7759,1.7794,1.7805,1.7859,1.7858,1.7893,1.7959,1.7984,1.8006,1.8073,1.807,1.8085,1.8114,1.8147,1.8155,1.8161,1.8184,1.8192,1.8091,1.8091,1.8091,0,1.763,1.7686,1.7698,1.7739,1.7762,1.7762,1.7806,1.7829,1.7875,1.7891,1.7879,1.7962,1.7986,1.8051,1.8067,1.8085,1.8098,1.808,1.8153,1.8159,1.8165,1.8187,1.8196,1.8093,1.8092,1.8092,1.8092,0,1.7709,1.7749,1.778,1.7823,1.785,1.7893,1.7911,1.7938,1.7942,1.7957,1.8012,1.8041,1.8084,1.81,1.8105,1.8166,1.8158,1.815,1.8127,1.8175,1.8196,1.8205,1.8095,1.8094,1.8094,1.8093,0,0,1.7772,1.7823,1.7834,1.7854,1.7894,1.7925,1.7968,1.801,1.8032,1.8065,1.8101,1.8158,1.815,1.8175,1.8183,1.8212,1.8262,1.82,1.8201,1.8209,1.8331,1.8335,1.8345,1.8262,1.8263,1.8265,1.8327,0,1.7831,1.7906,1.7918,1.7984,1.8021,1.8023,1.8061,1.809,1.8106,1.814,1.8159,1.8198,1.8186,1.82,1.823,1.825,1.8287,1.8246,1.8295,1.8297,1.8284,1.8356,1.8361,1.8418,1.8335,1.8337,1.8338,0,1.7908,1.7942,1.8012,1.8047,1.8063,1.8097,1.8136,1.8169,1.8203,1.8213,1.8241,1.8246,1.8291,1.8269,1.8332,1.8304,1.8326,1.8339,1.8342,1.8345,1.8319,1.836,1.8437,1.8445,1.8351,1.835,1.8349,0,1.7945,1.8009,1.8059,1.8076,1.8119,1.8143,1.8162,1.8194,1.8218,1.8254,1.827,1.831,1.8332,1.8364,1.838,1.8362,1.8442,1.8421,1.8451,1.845,1.8466,1.8464,1.8546,1.8483,1.8483,1.8483,1.8482,0,1.8007,1.805,1.8076,1.8106,1.8154,1.8169,1.8216,1.8235,1.8264,1.8299,1.8304,1.8336,1.8357,1.8393,1.8406,1.8456,1.8466,1.8476,1.8478,1.8474,1.8472,1.8486,1.8482,1.8485,1.8484,1.8484,1.8484,0,1.8056,1.8075,1.8129,1.8166,1.8176,1.821,1.8242,1.8272,1.8289,1.8333,1.8344,1.8371,1.8414,1.8434,1.8487,1.8496,1.8552,1.8553,1.854,1.8541,1.8569,1.8565,1.8661,1.8674,1.8604,1.8605,1.8605,0,1.8093,1.8125,1.8166,1.8189,1.8209,1.8247,1.8272,1.8289,1.8315,1.8356,1.8382,1.8425,1.8459,1.8528,1.8552,1.8593,1.8594,1.8625,1.86,1.8595,1.8593,1.859,1.8593,1.8628,1.8629,1.863,1.863,0,1.8157,1.8165,1.8201,1.824,1.827,1.8302,1.8333,1.8352,1.8374,1.8403,1.8447,1.8474,1.8528,1.857,1.8613,1.8634,1.8636,1.8638,1.8647,1.8642,1.8632,1.8636,1.855,1.8635,1.8635,1.8634,1.8634,1.8634,1.82,1.8229,1.8262,1.8301,1.8327,1.8356,1.8386,1.8408,1.8444,1.8488,1.8497,1.8543,1.8578,1.8635,1.8658,1.8694,1.8687,1.87,1.8703,1.8706,1.8706,1.8628,1.8703,1.8702,1.8702,1.8702,1.8702,0,1.8263,1.8284,1.8321,1.8364,1.8396,1.8396,1.8431,1.8457,1.8497,1.8529,1.8563,1.8614,1.8655,1.8684,1.8726,1.875,1.8752,1.8761,1.8758,1.8763,1.8711,1.8698,1.8758,1.8758,1.8758,1.8758,1.8758,1.8758,1.8299,1.8347,1.836,1.8422,1.8444,1.8488,1.8508,1.8536,1.8561,1.8617,1.8651,1.867,1.87,1.8745,1.8784,1.8791,1.8806,1.8814,1.8821,1.8772,1.8766,1.8761,1.8748,1.8818,1.8818,1.8869,1.887,1.887]},{"header":{"parameterUnit":"m.s-1","parameterCategory":1,"la1":30.2991,"la2":30.254,"lo1":-89.0895,"lo2":-89.0444,"dy":0.0017,"dx":0.0017,"nx":28,"ny":28,"refTime":"2024-02-19T03:00:00:Z","depth":0,"parameterNumber":3,"parameterNumberName":"V-component_of_WINDS"},"data":[0,0,0,0,0,0,0,0,0,0,0,0,0,0,0,0,0,0,0,0,0,0,0,0,0,0,0,0,0,0,0,0,0,0,0,0,0,0,0,0,0,0,0,0,0,0,0,0,0,0,0,0,0,0,0,0,0,0,2.6109,2.611,0,2.623,2.6231,2.6232,2.6275,2.6275,2.6274,2.6274,2.639,2.6394,2.6397,0,0,0,0,0,0,0,0,0,0,0,0,0,2.5905,2.5909,2.6108,2.611,2.6112,2.623,2.6231,2.6233,2.6275,2.6275,2.6274,2.6274,2.6389,2.6393,2.6398,0,0,0,0,0,0,0,0,0,0,0,0,0,2.6006,2.591,2.6108,2.6147,2.6152,2.6229,2.6231,2.6233,2.6275,2.6275,2.6274,2.6274,2.6388,2.6393,2.6398,2.6443,0,0,2.6414,2.6417,0,0,0,0,0,0,0,0,2.6,2.6014,2.614,2.6145,2.615,2.6237,2.6202,2.6303,2.6276,2.6228,2.6274,2.6273,2.6339,2.6349,2.6372,2.6449,2.6454,2.6415,2.6418,2.642,2.6422,0,0,0,0,0,0,0,2.5993,2.6009,2.6156,2.6142,2.6148,2.6156,2.6169,2.6222,2.6286,2.6232,2.6236,2.625,2.6342,2.6367,2.6376,2.6456,2.6415,2.6419,2.6423,2.6425,2.6572,2.6573,0,0,0,0,0,0,2.5981,2.6003,2.6152,2.616,2.6072,2.616,2.6175,2.6209,2.6285,2.6296,2.625,2.6251,2.6359,2.6369,2.638,2.6437,2.642,2.6425,2.6428,2.6571,2.6572,2.6573,0,0,0,0,0,0,2.5977,2.5994,2.6148,2.6082,2.6102,2.6164,2.6202,2.6212,2.6238,2.6299,2.631,2.6265,2.6359,2.6372,2.6427,2.6441,2.6427,2.6432,2.6571,2.6572,2.6573,2.6551,0,0,0,0,0,0,2.5971,2.5992,2.6012,2.6083,2.6106,2.6196,2.6203,2.6215,2.6248,2.625,2.6316,2.6326,2.6359,2.6419,2.6432,2.6448,2.6436,2.657,2.6571,2.6572,2.6551,2.6551,2.6552,0,0,0,0,0,2.5963,2.6,2.6013,2.6031,2.6133,2.6197,2.621,2.6249,2.6249,2.6268,2.6307,2.6324,2.6437,2.6424,2.644,2.6457,2.6569,2.6571,2.6572,2.6551,2.6551,2.6552,0,0,0,0,0,0,2.5928,2.601,2.6026,2.6087,2.6135,2.6204,2.6229,2.6249,2.6296,2.6296,2.6341,2.6355,2.6406,2.6437,2.6421,2.6503,2.6504,2.6509,2.6482,2.6483,2.6484,2.6475,2.6441,0,0,0,0,0,2.5928,2.5975,2.6043,2.6091,2.6114,2.6167,2.6197,2.6223,2.6273,2.6293,2.6336,2.6382,2.6428,2.6457,2.6503,2.6555,2.6568,2.6574,2.6575,2.6575,2.6578,2.6606,2.6609,2.6579,2.6579,2.6579,0,0,2.5927,2.5978,2.6005,2.6085,2.6125,2.6171,2.6184,2.6232,2.6266,2.63,2.6355,2.6387,2.6441,2.6494,2.652,2.6522,2.6589,2.6577,2.6577,2.658,2.6608,2.6611,2.6613,2.658,2.658,2.658,0,0,2.5949,2.5993,2.6037,2.6077,2.6138,2.6173,2.6183,2.6249,2.6273,2.6329,2.6355,2.6393,2.6472,2.6509,2.6538,2.6571,2.6588,2.6584,2.6587,2.6614,2.6616,2.6618,2.6629,2.6632,2.6588,2.6588,2.6588,0,2.594,2.6013,2.6056,2.6103,2.6136,2.6171,2.6214,2.6249,2.6321,2.6342,2.6343,2.6442,2.648,2.6542,2.655,2.6572,2.6583,2.6578,2.6613,2.6615,2.6618,2.6629,2.6633,2.6587,2.6587,2.6587,2.6587,0,2.5997,2.6047,2.6074,2.6145,2.6181,2.6226,2.6273,2.6304,2.6326,2.636,2.6415,2.6462,2.6517,2.6533,2.6555,2.6597,2.6596,2.6604,2.6606,2.6619,2.663,2.6634,2.6586,2.6586,2.6586,2.6586,0,0,2.6002,2.6096,2.6105,2.6137,2.6206,2.6243,2.6287,2.6344,2.6368,2.6415,2.6452,2.6517,2.6525,2.6557,2.6583,2.6606,2.6627,2.6611,2.6613,2.6612,2.6675,2.6668,2.6672,2.6639,2.664,2.664,2.667,0,2.6033,2.6117,2.6157,2.6222,2.6267,2.6299,2.6337,2.6381,2.6413,2.6453,2.6487,2.6532,2.654,2.6559,2.6584,2.662,2.6641,2.6618,2.6671,2.6672,2.6657,2.6678,2.6672,2.6698,2.6674,2.6675,2.6676,0,2.6081,2.613,2.6201,2.6263,2.6283,2.6317,2.637,2.6409,2.6459,2.648,2.6516,2.654,2.6585,2.6582,2.6642,2.6626,2.6649,2.667,2.6672,2.6678,2.6675,2.6684,2.6707,2.671,2.6683,2.6682,2.6682,0,2.6076,2.616,2.6213,2.6239,2.6313,2.6335,2.6367,2.6416,2.6447,2.6492,2.6512,2.656,2.6587,2.6623,2.6658,2.6654,2.6714,2.6715,2.6731,2.673,2.6743,2.6742,2.6769,2.6758,2.6758,2.6758,2.6758,0,2.6106,2.6148,2.6212,2.6244,2.629,2.6333,2.6377,2.641,2.6453,2.649,2.6519,2.6553,2.6598,2.6636,2.6664,2.6709,2.672,2.6737,2.6744,2.6734,2.6732,2.675,2.6749,2.6759,2.6759,2.6759,2.6758,0,2.6109,2.6154,2.6213,2.6279,2.6296,2.6327,2.6381,2.6412,2.6444,2.6491,2.6504,2.6554,2.66,2.664,2.67,2.6718,2.6764,2.6772,2.6748,2.6752,2.6765,2.6763,2.6805,2.6812,2.6796,2.6796,2.6796,0,2.6126,2.6159,2.6228,2.6256,2.6287,2.6332,2.6364,2.6406,2.6437,2.6495,2.6518,2.6566,2.6608,2.6679,2.6719,2.6765,2.6774,2.6786,2.6781,2.677,2.6773,2.6771,2.6774,2.6786,2.6786,2.6786,2.6786,0,2.615,2.617,2.6216,2.6269,2.6306,2.6349,2.6393,2.6413,2.6463,2.6495,2.6544,2.6576,2.6638,2.6685,2.6735,2.6764,2.6782,2.6787,2.6793,2.6783,2.6768,2.6776,2.6748,2.6786,2.6786,2.6786,2.6786,2.6786,2.616,2.619,2.6243,2.6292,2.633,2.637,2.6402,2.6438,2.6481,2.6536,2.6557,2.6607,2.6652,2.6721,2.675,2.6787,2.679,2.6798,2.6801,2.6802,2.68,2.6762,2.6796,2.6796,2.6796,2.6796,2.6796,0,2.6185,2.622,2.6265,2.6326,2.6364,2.638,2.6429,2.6458,2.6502,2.6545,2.6585,2.664,2.6685,2.6728,2.6775,2.6796,2.6805,2.6807,2.6805,2.6811,2.6796,2.6786,2.6798,2.6798,2.6798,2.6798,2.6798,2.6798,2.6202,2.6254,2.628,2.6349,2.6383,2.6434,2.646,2.6496,2.653,2.659,2.6629,2.6658,2.6699,2.6749,2.679,2.6801,2.6817,2.6816,2.6829,2.6813,2.6813,2.6812,2.6803,2.6819,2.6819,2.6842,2.6842,2.6842]}]]